Showing default

METEOR M2-3, 57166

Orbit data source: Space-Track

METEOR M2-3, 57166 is a Commonwealth of Independent States-origin payload satellite in SSO that was launched on Tue, 27 Jun 2023 UTC via a SOYUZ-2-1B launch vehicle from the Vostochny Cosmodrome (VOSTO). Payload-class satellites include a variety of spacecraft equipped with specific instruments for various scientific and technological missions. These include communications satellites like Starlink; space stations such as the ISS; scientific satellites like the Hubble; Earth observation satellites from companies like Planet Labs, Umbra, and HawkEye 360; GPS; miniature CubeSats for education and research; and military/defense satellites.

Loading next visibility...
Identifier
57166, 2023-091A
Orbit
SSO
Country
Flag of CISCIS
Related business
Manufacturer
VNIIEM
Mission
Operational Civil Weather
Bus & Motor
RESURS-O, Unknown motor
Mass
2,879 kg wet, ~2,600 kg dry
Launch date (UTC)
2023-06-27 (2 years ago)
Launch vehicle
SOYUZ-2-1B
Launch site
Vostochny Cosmodrome (VOSTO)
Object type
Payload
Rocket body
Debris
Shape & HBR
Cyl + 2 Pan, 7.0 m
Radar Cross Section
26.744 m², Large (>1 m²)

Expand to show TLE details & history
Last TLE update: 7 hours ago

TLE from 7 hours ago
0 METEOR M2-3
1 57166U 23091A   25304.67397441  .00000027  00000-0  30689-4 0  9994
2 57166  98.6441 358.9348 0005037 110.4093 249.7627 14.24018212121996
Epoch: 2025-10-31T16:10Z
TLE epoch observation values (Epoch: 2025-10-31T16:10:31.389Z)
Latitude
-0.00002°
Longitude
76.08899°
Altitude
815.972 km
Speed
7.445 km/s
True Right ascension
23h 55m 44s
True Declination
0° 00' 00"
Sunlit
Object was in full shadow at epoch
Visualization orbit readout
Latitude
Unknown
Longitude
Unknown
Altitude
Unknown
Speed
Unknown
Apparent Right ascension
Unknown
Apparent Declination
Unknown
Sunlit
N/A
Visualization observer readout
Local Sidereal Time
18:24:10
Azimuth
Unknown
Elevation
Unknown
Doppler factor
Unknown
Orbital elements
Apogee altitude
812.566 km
Perigee altitude
805.325 km
Semi-major axis
7,187.083 km
Eccentricity
0.0005
Inclination
98.6441°
RAAN
358.9348°
Arg. of periapsis
110.4093°
True anomaly
249.70856°
Mean anomaly
249.7627°
Eccentric anomaly
249.73563°
Mean motion
3.56217 °/min
Orbital period
101.06 mins
BSTAR
0.000030689
Loading maneuver chart data...
Computing Atmospheric mass density...
Loading historical data...
Loading historical data...
Loading historical data...
Loading historical data...
Loading historical data...
Loading historical data...
Loading historical data...

Documentation

Showing up to 5 results
|